Location: Asheville, NC
(35.6000°N, 82.5500°W)
Time: 15:31:45
(UTC-04:00)

Vanguard 1 - Pass Details

Date: 13 March 2018
Orbit: 650 x 3833 km, 34.3° (Epoch: 24 June)

Event Time Altitude Azimuth Distance (km) Brightness Sun altitude
Rises 12:33:50 0° 265° (W) 7,810 14.5 48.7°
Reaches altitude 10° 12:39:00 10° 265° (W) 6,899 14.3 49.1°
Maximum altitude 13:02:58 86° 180° (S) 3,382 13.8 50.7°
Drops below altitude 10° 13:19:12 10° 94° (E) 4,978 13.9 51.4°
Sets 13:22:14 0° 94° (E) 5,650 14.0 51.4°
